Volver al catálogo

ISTSAT-1

ActivoCienciaVLEO
NORAD 60238·PAYLOAD·🇵🇹 Portugal

Lanzado Jul 9, 2024 desde Guiana Space Centre

Loading…

Próximos Pases (próximas 24 horas)

TLE

ActualizadoSource: Space-Track

Época: Sep 14, 2026, 14:11 UTC

1 60238U 24128D   26257.59100266  .00004768  00000-0  28281-3 0  9996
2 60238  61.9867 249.7754 0025233 148.3057 211.9565 15.12547399119982

Sigue ISTSAT-1 en tiempo real con AllMySat

Download on the App Store